Radiation Dose at Monitoring Post of Fukushima Daini Nuclear Power Station
Date,Time,MP-1(microSv/h),MP-2(microSv/h),MP-3(microSv/h),MP-4(microSv/h),MP-5(microSv/h),MP-6(microSv/h),MP-7(microSv/h),Wind Direction,Wind Velocity(m/s),Rain
2020/11/01,00:00,0.178,0.157,0.256,0.243,0.243,0.138,0.083,south-southwest,3.9,No
2020/11/01,00:10,0.177,0.157,0.257,0.244,0.245,0.138,0.084,southwest,4.0,No
2020/11/01,00:20,0.178,0.157,0.256,0.244,0.246,0.138,0.084,southwest,3.9,No
2020/11/01,00:30,0.178,0.157,0.258,0.244,0.244,0.138,0.085,south-southwest,3.8,No
2020/11/01,00:40,0.178,0.158,0.258,0.244,0.244,0.139,0.084,southwest,4.2,No
2020/11/01,00:50,0.178,0.158,0.258,0.243,0.243,0.138,0.084,southwest,3.8,No
2020/11/01,01:00,0.178,0.158,0.257,0.243,0.244,0.138,0.084,southwest,3.5,No
2020/11/01,01:10,0.179,0.157,0.257,0.243,0.243,0.139,0.083,southwest,3.9,No
2020/11/01,01:20,0.177,0.158,0.257,0.243,0.244,0.138,0.083,southwest,3.5,No
2020/11/01,01:30,0.178,0.157,0.256,0.243,0.245,0.138,0.084,south-southwest,3.6,No
2020/11/01,01:40,0.177,0.157,0.257,0.243,0.245,0.138,0.083,south-southwest,3.7,No
2020/11/01,01:50,0.177,0.158,0.257,0.244,0.244,0.138,0.083,south,4.2,No
2020/11/01,02:00,0.177,0.157,0.256,0.242,0.244,0.138,0.084,south,4.6,No
2020/11/01,02:10,0.178,0.157,0.257,0.242,0.244,0.139,0.084,south-southwest,5.4,No
2020/11/01,02:20,0.178,0.158,0.258,0.243,0.244,0.139,0.084,south-southwest,4.9,No
2020/11/01,02:30,0.178,0.157,0.257,0.244,0.243,0.138,0.084,south-southwest,5.1,No
2020/11/01,02:40,0.178,0.156,0.256,0.243,0.245,0.138,0.084,south-southwest,3.4,No
2020/11/01,02:50,0.178,0.157,0.257,0.243,0.245,0.138,0.083,south-southwest,2.8,No
2020/11/01,03:00,0.177,0.157,0.257,0.243,0.245,0.138,0.084,south-southwest,4.2,No
2020/11/01,03:10,0.178,0.157,0.257,0.243,0.244,0.139,0.083,south-southwest,3.4,No
2020/11/01,03:20,0.178,0.157,0.257,0.243,0.244,0.138,0.084,south-southwest,4.1,No
2020/11/01,03:30,0.178,0.156,0.257,0.243,0.244,0.138,0.084,south-southwest,4.1,No
2020/11/01,03:40,0.178,0.158,0.257,0.243,0.244,0.138,0.084,south-southwest,4.6,No
2020/11/01,03:50,0.177,0.157,0.256,0.243,0.243,0.138,0.085,south-southwest,4.1,No
2020/11/01,04:00,0.178,0.157,0.258,0.244,0.245,0.138,0.084,south-southwest,4.6,No
2020/11/01,04:10,0.178,0.158,0.257,0.243,0.245,0.138,0.084,south-southwest,3.6,No
2020/11/01,04:20,0.178,0.157,0.257,0.244,0.245,0.138,0.085,south-southwest,3.8,No
2020/11/01,04:30,0.179,0.157,0.257,0.243,0.243,0.138,0.084,south-southwest,4.4,No
2020/11/01,04:40,0.178,0.157,0.257,0.243,0.244,0.137,0.084,southwest,3.7,No
2020/11/01,04:50,0.178,0.157,0.257,0.245,0.245,0.138,0.083,south-southwest,3.7,No
2020/11/01,05:00,0.178,0.157,0.256,0.243,0.245,0.139,0.084,south-southwest,3.9,No
2020/11/01,05:10,0.178,0.157,0.256,0.243,0.245,0.138,0.084,south-southwest,3.9,No
2020/11/01,05:20,0.178,0.157,0.257,0.244,0.244,0.139,0.084,south-southwest,4.0,No
2020/11/01,05:30,0.178,0.156,0.258,0.244,0.244,0.139,0.083,south-southwest,3.9,No
2020/11/01,05:40,0.178,0.158,0.256,0.244,0.244,0.139,0.084,southwest,5.4,No
2020/11/01,05:50,0.178,0.157,0.257,0.244,0.244,0.138,0.084,southwest,5.6,No
2020/11/01,06:00,0.179,0.158,0.258,0.242,0.245,0.139,0.084,southwest,6.4,No
2020/11/01,06:10,0.178,0.157,0.257,0.243,0.245,0.138,0.084,west-southwest,3.7,No
2020/11/01,06:20,0.179,0.158,0.257,0.244,0.245,0.138,0.083,southwest,3.3,No
2020/11/01,06:30,0.177,0.157,0.259,0.244,0.245,0.138,0.084,south-southwest,3.4,No
2020/11/01,06:40,0.178,0.157,0.257,0.245,0.245,0.138,0.084,southwest,3.4,No
2020/11/01,06:50,0.177,0.157,0.257,0.245,0.244,0.139,0.083,south-southwest,3.2,No
2020/11/01,07:00,0.178,0.158,0.257,0.242,0.244,0.138,0.083,southwest,3.0,No
2020/11/01,07:10,0.177,0.158,0.259,0.244,0.244,0.139,0.084,southwest,2.5,No
2020/11/01,07:20,0.178,0.157,0.256,0.244,0.244,0.139,0.084,southwest,2.4,No
2020/11/01,07:30,0.177,0.157,0.257,0.241,0.244,0.139,0.084,south-southwest,2.9,No
2020/11/01,07:40,0.178,0.157,0.256,0.244,0.244,0.139,0.084,south,4.4,No
2020/11/01,07:50,0.177,0.157,0.257,0.243,0.246,0.139,0.084,south,5.0,No
2020/11/01,08:00,0.179,0.157,0.257,0.242,0.244,0.138,0.086,south-southwest,4.5,No
2020/11/01,08:10,0.178,0.157,0.257,0.245,0.245,0.138,0.084,south-southwest,4.3,No
2020/11/01,08:20,0.179,0.157,0.257,0.244,0.245,0.139,0.084,south-southwest,4.6,No
2020/11/01,08:30,0.178,0.158,0.259,0.243,0.245,0.139,0.083,southwest,4.5,No
2020/11/01,08:40,0.177,0.157,0.256,0.243,0.245,0.138,0.084,south-southwest,4.2,No
2020/11/01,08:50,0.178,0.157,0.257,0.243,0.244,0.138,0.084,south-southwest,3.4,No
2020/11/01,09:00,0.178,0.157,0.256,0.244,0.246,0.137,0.084,south,2.6,No
2020/11/01,09:10,0.179,0.156,0.257,0.243,0.243,0.139,0.085,south-southeast,2.8,No
2020/11/01,09:20,0.178,0.157,0.258,0.243,0.245,0.138,0.084,south-southeast,3.1,No
2020/11/01,09:30,0.178,0.156,0.257,0.242,0.244,0.139,0.084,south-southeast,4.2,No
2020/11/01,09:40,0.176,0.156,0.258,0.243,0.244,0.138,0.084,south,3.9,No
2020/11/01,09:50,0.178,0.156,0.256,0.244,0.244,0.139,0.084,south-southeast,4.9,No
2020/11/01,10:00,0.177,0.156,0.257,0.242,0.241,0.139,0.084,south,5.4,No
2020/11/01,10:10,0.177,0.158,0.255,0.244,0.243,0.137,0.084,south,7.0,No
2020/11/01,10:20,0.176,0.157,0.256,0.243,0.244,0.138,0.082,south,7.3,No
2020/11/01,10:30,0.178,0.155,0.256,0.241,0.242,0.138,0.084,south,7.4,No
2020/11/01,10:40,0.177,0.157,0.254,0.244,0.242,0.139,0.084,south,6.5,No
2020/11/01,10:50,0.175,0.156,0.257,0.244,0.245,0.138,0.083,south,7.5,No
2020/11/01,11:00,0.175,0.156,0.258,0.242,0.242,0.138,0.085,south,6.6,No
2020/11/01,11:10,0.179,0.158,0.254,0.245,0.242,0.139,0.084,south,6.5,No
2020/11/01,11:20,0.178,0.157,0.256,0.242,0.246,0.139,0.084,south,6.5,No
2020/11/01,11:30,0.177,0.156,0.256,0.244,0.245,0.138,0.085,south-southeast,6.1,No
2020/11/01,11:40,0.175,0.156,0.256,0.243,0.241,0.139,0.084,south-southeast,7.0,No
2020/11/01,11:50,0.175,0.156,0.257,0.242,0.243,0.138,0.083,south-southeast,7.3,No
2020/11/01,12:00,0.178,0.155,0.257,0.244,0.245,0.139,0.083,south-southeast,7.4,No
2020/11/01,12:10,0.178,0.156,0.257,0.244,0.243,0.138,0.084,south-southeast,8.1,No
2020/11/01,12:20,0.176,0.156,0.258,0.242,0.244,0.139,0.083,south-southeast,6.8,No
2020/11/01,12:30,0.176,0.156,0.259,0.244,0.244,0.140,0.084,south-southeast,7.3,No
2020/11/01,12:40,0.177,0.158,0.256,0.243,0.243,0.139,0.084,south-southeast,7.8,No
2020/11/01,12:50,0.178,0.156,0.256,0.244,0.243,0.139,0.083,south-southeast,6.7,No
2020/11/01,13:00,0.177,0.157,0.257,0.244,0.244,0.139,0.084,south-southeast,7.0,No
2020/11/01,13:10,0.177,0.156,0.257,0.242,0.243,0.139,0.084,south-southeast,7.4,No
2020/11/01,13:20,0.180,0.156,0.260,0.245,0.243,0.139,0.084,south-southeast,7.5,No
2020/11/01,13:30,0.177,0.157,0.257,0.243,0.246,0.139,0.083,south-southeast,6.7,No
2020/11/01,13:40,0.178,0.157,0.256,0.243,0.243,0.138,0.083,south-southeast,7.7,No
2020/11/01,13:50,0.179,0.157,0.258,0.245,0.246,0.139,0.084,south-southeast,7.0,No
2020/11/01,14:00,0.177,0.157,0.257,0.243,0.243,0.139,0.084,south-southeast,7.5,No
2020/11/01,14:10,0.178,0.157,0.258,0.243,0.245,0.139,0.084,south-southeast,7.4,No
2020/11/01,14:20,0.178,0.156,0.255,0.244,0.244,0.139,0.084,south-southeast,6.2,No
2020/11/01,14:30,0.179,0.157,0.258,0.246,0.245,0.140,0.084,south-southeast,6.5,No
2020/11/01,14:40,0.178,0.157,0.257,0.243,0.245,0.138,0.084,south-southeast,6.3,No
2020/11/01,14:50,0.177,0.158,0.259,0.245,0.243,0.140,0.084,south-southeast,6.8,No
2020/11/01,15:00,0.178,0.157,0.256,0.245,0.246,0.138,0.084,south-southeast,6.7,No
2020/11/01,15:10,0.177,0.157,0.258,0.245,0.244,0.139,0.084,south-southeast,6.1,No
2020/11/01,15:20,0.178,0.157,0.257,0.243,0.245,0.139,0.083,south-southeast,5.3,No
2020/11/01,15:30,0.177,0.158,0.259,0.245,0.243,0.139,0.083,south-southeast,6.3,No
2020/11/01,15:40,0.179,0.157,0.256,0.244,0.246,0.138,0.083,south-southeast,5.4,No
2020/11/01,15:50,0.177,0.157,0.258,0.245,0.243,0.139,0.083,south-southeast,5.8,No
2020/11/01,16:00,0.179,0.157,0.257,0.244,0.246,0.138,0.084,south-southeast,5.2,No
2020/11/01,16:10,0.178,0.157,0.258,0.245,0.244,0.139,0.083,south-southeast,4.8,No
2020/11/01,16:20,0.179,0.157,0.257,0.245,0.245,0.138,0.084,south-southeast,5.4,No
2020/11/01,16:30,0.178,0.157,0.257,0.244,0.244,0.138,0.083,south,6.2,No
2020/11/01,16:40,0.179,0.158,0.257,0.245,0.246,0.139,0.084,south,5.6,No
2020/11/01,16:50,0.178,0.157,0.258,0.245,0.245,0.139,0.083,south,5.7,No
2020/11/01,17:00,0.179,0.157,0.258,0.244,0.245,0.139,0.084,south,5.5,No
2020/11/01,17:10,0.178,0.157,0.257,0.243,0.245,0.138,0.084,south,4.7,No
2020/11/01,17:20,0.179,0.157,0.258,0.245,0.246,0.140,0.085,south,5.0,No
2020/11/01,17:30,0.177,0.157,0.258,0.243,0.245,0.139,0.083,south-southwest,4.3,No
2020/11/01,17:40,0.178,0.158,0.260,0.244,0.245,0.139,0.084,south-southwest,5.1,No
2020/11/01,17:50,0.178,0.157,0.257,0.243,0.244,0.138,0.084,south-southwest,5.0,No
2020/11/01,18:00,0.179,0.157,0.258,0.245,0.244,0.139,0.084,south-southwest,5.4,No
2020/11/01,18:10,0.177,0.158,0.258,0.245,0.245,0.138,0.084,south-southwest,4.5,No
2020/11/01,18:20,0.178,0.157,0.259,0.244,0.245,0.139,0.084,south-southwest,3.7,No
2020/11/01,18:30,0.177,0.157,0.258,0.243,0.245,0.139,0.084,south-southwest,3.2,No
2020/11/01,18:40,0.178,0.157,0.256,0.244,0.246,0.139,0.084,south-southwest,3.0,No
2020/11/01,18:50,0.178,0.157,0.259,0.245,0.245,0.139,0.084,south-southwest,2.7,No
2020/11/01,19:00,0.178,0.157,0.258,0.243,0.244,0.139,0.084,south-southwest,2.8,No
2020/11/01,19:10,0.178,0.157,0.260,0.246,0.246,0.139,0.084,south-southwest,3.5,No
2020/11/01,19:20,0.178,0.158,0.257,0.245,0.243,0.138,0.084,south-southwest,3.6,No
2020/11/01,19:30,0.179,0.158,0.259,0.244,0.247,0.139,0.084,southwest,3.7,No
2020/11/01,19:40,0.177,0.157,0.258,0.245,0.243,0.139,0.084,southwest,4.0,No
2020/11/01,19:50,0.178,0.158,0.257,0.244,0.246,0.139,0.084,southwest,3.6,No
2020/11/01,20:00,0.178,0.157,0.258,0.245,0.245,0.139,0.084,west-southwest,3.8,No
2020/11/01,20:10,0.178,0.158,0.258,0.245,0.245,0.139,0.084,west-southwest,3.0,No
2020/11/01,20:20,0.177,0.158,0.258,0.243,0.244,0.139,0.084,southwest,3.6,No
2020/11/01,20:30,0.177,0.158,0.259,0.244,0.245,0.139,0.084,south-southwest,4.1,No
2020/11/01,20:40,0.178,0.158,0.257,0.244,0.245,0.139,0.084,south-southwest,3.1,No
2020/11/01,20:50,0.177,0.157,0.258,0.244,0.244,0.140,0.085,south,3.4,No
2020/11/01,21:00,0.180,0.158,0.257,0.244,0.245,0.137,0.083,south,4.1,No
2020/11/01,21:10,0.177,0.157,0.258,0.244,0.244,0.139,0.084,south,3.8,No
2020/11/01,21:20,0.179,0.157,0.258,0.245,0.246,0.139,0.084,south,3.7,No
2020/11/01,21:30,0.178,0.159,0.256,0.243,0.244,0.138,0.083,south,3.9,No
2020/11/01,21:40,0.178,0.157,0.259,0.245,0.245,0.139,0.084,south,4.3,No
2020/11/01,21:50,0.178,0.157,0.257,0.243,0.244,0.138,0.085,south,4.0,No
2020/11/01,22:00,0.178,0.157,0.258,0.244,0.246,0.139,0.084,south,4.1,No
2020/11/01,22:10,0.178,0.156,0.256,0.245,0.243,0.138,0.084,south,4.3,No
2020/11/01,22:20,0.178,0.158,0.258,0.244,0.246,0.138,0.084,south,4.6,No
2020/11/01,22:30,0.178,0.158,0.258,0.244,0.243,0.137,0.084,south,4.3,No
2020/11/01,22:40,0.178,0.157,0.257,0.244,0.245,0.138,0.084,south,3.7,No
2020/11/01,22:50,0.179,0.158,0.259,0.244,0.245,0.138,0.083,south,3.3,No
2020/11/01,23:00,0.179,0.157,0.256,0.245,0.245,0.138,0.084,south-southwest,2.5,No
2020/11/01,23:10,0.179,0.157,0.256,0.244,0.244,0.139,0.084,south-southwest,3.0,No
2020/11/01,23:20,0.178,0.157,0.257,0.245,0.245,0.139,0.084,south-southwest,4.2,No
2020/11/01,23:30,0.177,0.158,0.257,0.243,0.245,0.139,0.083,south,2.5,No
2020/11/01,23:40,0.178,0.157,0.258,0.245,0.245,0.138,0.084,south,2.5,No
2020/11/01,23:50,0.178,0.157,0.256,0.242,0.244,0.139,0.084,south,4.7,No
